Location: Prague
(50.0830°N, 14.4670°E)
Time: 08:46:41
(UTC+01:00)

Oscar 11 - Pass Details

Date: 04 December 2021
Orbit: 611 x 625 km, 97.6° (Epoch: 26 January)

Event Time Altitude Azimuth Distance (km) Brightness Sun altitude
Rises 05:54:20 0° 10° (N) 2,921 10.5 -16.6°
Reaches altitude 10° 05:56:33 10° 8° (N) 2,008 9.6 -16.2°
Maximum altitude 06:00:53 64° 288° (WNW) 695 7.0 -15.6°
Drops below altitude 10° 06:05:09 10° 207° (SSW) 1,984 9.6 -14.9°
Sets 06:07:20 0° 204° (SSW) 2,883 10.4 -14.6°
